Volver al catálogo

STARLINK-34485

ActivoComunicacionesVLEO
NORAD 64684·PAYLOAD·🇺🇸 United States

Lanzado Jun 28, 2025 desde Cape Canaveral Space Force Station

Loading…

Próximos Pases (próximas 24 horas)

TLE

ActualizadoSource: CelesTrak SupGP

Época: Sep 14, 2026, 22:40 UTC

1 64684C 25139W   26257.94493056  .00021719  00000+0  64192-3 0  2571
2 64684  53.1598 323.8933 0001185  88.6986  44.6882 15.34369049    19

Sigue STARLINK-34485 en tiempo real con AllMySat

Download on the App Store